SCP
1 1 2 2 0 0 0 0 0 0 0 0 0 0 0 0 0 0 0 0 0 0 0 0 0 -0 -0 -0 -0 -0 -0 -0 0 0 0 0 0 0 0 0 0 0 0
1 2 3 0 0 0 0 0 0 0 0 0 0 0 0 0 0 0 0 0 0 0 0 0 0 0 -0 -0 -0 -0 -0 -0 -0 -0 0 0 0 0 0 0 0 0 0
0 2 1 0 0 0 0 0 0 0 0 0 0 0 0 0 0 0 0 0 0 0 0 0 0 0 0 -0 -0 -0 -0 -0 -0 0 -0 0 0 0 0 0 0 0 0
0 1 1 0 0 0 0 0 0 0 0 0 0 0 0 0 0 0 0 0 0 0 0 0 0 0 0 0 -0 -0 -0 -0 0 0 0 0 0 0 0 0 0 0 0
0 1 1 0 0 0 0 0 0 0 0 0 0 0 0 0 0 0 0 0 0 0 0 0 0 0 0 0 0 -0 0 -0 -0 0 0 0 0 0 0 0 0 0 0
0 1 1 1 0 0 0 0 0 0 0 0 0 0 0 0 0 0 0 0 0 0 0 0 0 0 0 0 0 0 0 0 0 0 0 0 0 0 0 0 0 0 0
0 0 1 1 0 0 0 0 0 0 0 0 0 0 0 0 0 0 0 0 0 0 0 0 0 0 0 0 0 0 0 0 0 0 0 0 0 0 0 0 0 0 0
0 0 0 1 1 0 0 0 0 0 0 0 0 0 0 0 0 0 0 0 0 0 0 0 0 0 0 0 0 0 0 0 0 0 0 0 0 0 0 0 0 0 0
0 0 0 0 1 0 0 0 0 0 0 0 0 0 0 0 0 0 0 0 0 0 0 0 0 0 0 0 0 0 0 0 0 0 0 0 0 0 0 0 0 0 0
0 0 0 0 1 0 0 0 0 0 0 0 0 0 0 0 0 0 0 0 0 0 0 0 0 0 0 0 0 0 0 0 0 0 0 0 0 0 0 0 0 0 0
0 0 0 0 0 0 0 0 0 0 0 0 0 0 0 0 0 0 0 0 0 0 0 0 0 0 0 0 0 0 0 0 0 0 0 0 0 0 0 0 0 0 0
0 0 0 0 0 0 0 0 0 0 0 0 0 0 0 0 0 0 0 0 0 0 0 0 0 0 0 0 0 0 0 0 0 0 0 0 0 0 0 0 0 0 0
0 0 0 0 0 0 0 0 0 0 0 0 0 0 0 0 0 0 0 0 0 0 0 0 0 0 0 0 0 0 0 0 0 0 0 0 0 0 0 0 0 0 0
0 0 0 0 0 0 0 0 0 0 0 0 0 0 0 0 0 0 0 0 0 0 0 0 0 0 0 0 0 0 0 0 0 0 0 0 0 0 0 0 0 0 0
0 0 0 0 0 0 0 0 0 0 0 0 0 0 0 0 0 0 0 0 0 0 0 0 0 0 0 0 0 0 0 0 0 0 0 0 0 0 0 0 0 0 0
0 0 0 0 0 0 0 0 0 0 0 0 0 0 0 0 0 0 0 0 0 0 0 0 0 0 0 0 0 0 0 0 0 0 0 0 0 0 0 0 0 0 0
0 0 0 0 0 0 0 0 0 0 0 0 0 0 0 0 0 0 0 0 0 0 0 0 0 0 0 0 0 0 0 0 0 0 0 0 0 0 0 0 0 0 0
0 0 0 0 0 0 0 0 -0 0 0 0 0 0 0 0 0 0 0 0 0 0 0 0 0 0 0 0 0 0 0 0 0 0 0 0 0 0 0 0 0 0 0
0 0 0 0 0 0 0 0 0 0 0 0 0 0 0 0 0 0 0 0 0 0 0 0 0 0 0 0 0 0 0 0 0 0 0 0 0 0 0 0 0 0 0
0 0 0 0 0 0 0 0 0 0 0 0 0 0 0 0 0 0 0 0 0 0 0 0 0 0 0 0 0 0 0 0 0 0 0 0 0 0 0 0 0 0 0
0 0 0 0 0 0 0 0 0 0 0 0 0 0 0 0 0 0 0 0 0 0 0 0 0 0 0 0 0 0 0 0 0 0 0 0 0 0 0 0 0 0 0
0 0 0 0 0 0 0 0 0 0 0 0 0 0 0 0 0 0 0 0 0 0 0 0 0 0 0 0 0 0 0 0 0 0 0 0 0 0 0 0 0 0 0
0 0 0 0 0 0 0 0 0 0 0 0 0 0 0 0 0 0 0 0 0 0 0 0 0 0 0 0 0 0 0 0 0 0 0 0 0 0 0 0 0 0 0
0 0 0 0 0 0 0 0 0 0 0 0 0 0 0 0 0 0 0 0 0 0 0 0 0 0 0 0 0 0 0 0 0 0 0 0 0 0 0 0 0 0 0
0 0 0 0 0 0 0 0 0 0 0 0 0 0 0 0 0 0 0 0 0 -0 0 0 0 0 0 0 0 0 0 0 0 0 0 0 0 0 0 0 0 0 0
0 0 0 0 0 0 0 0 0 0 0 0 0 0 0 0 0 0 0 0 0 0 0 0 0 0 0 0 0 0 0 0 0 0 0 0 0 0 0 0 0 0 0
Wind_Speed_500mb
82 87 85 82 85 88 89 84 81 74 70 67 67 62 56 47 37 36 32 24 16 9 7 8 13 19 24 32 38 40 41 42 43 39 26 20 9 8 29 15 10 14 20
80 82 84 86 92 91 96 95 89 79 72 69 69 65 59 51 39 41 36 28 19 12 6 7 12 18 24 28 33 40 44 46 49 45 30 17 7 16 11 25 12 21 28
88 88 93 95 96 98 104 107 99 85 74 73 72 65 62 53 52 52 43 32 23 15 6 5 9 15 21 26 33 39 42 41 42 43 33 14 13 39 16 14 36 31 29
86 86 101 102 106 107 104 112 102 91 82 78 76 72 69 68 64 56 46 35 27 19 9 3 6 13 18 23 30 37 40 40 37 35 34 27 28 17 25 41 42 41 35
82 87 105 118 110 108 110 114 110 98 89 86 81 76 73 64 59 56 49 40 33 24 13 3 4 11 15 20 27 33 37 38 36 30 27 27 28 24 30 43 71 55 45
74 80 91 117 114 112 109 113 118 105 96 90 84 83 74 66 66 63 56 47 37 28 17 8 5 10 15 19 25 30 35 36 34 32 29 27 26 28 30 49 61 67 58
59 79 90 108 103 113 113 115 120 115 105 99 91 89 78 69 68 66 61 52 42 32 22 12 8 11 16 21 25 28 31 31 30 30 30 28 27 29 30 36 49 59 69
40 74 93 108 110 121 121 122 124 120 110 105 95 89 79 73 68 64 58 49 36 29 24 16 11 12 16 21 26 27 29 30 30 30 30 30 28 29 31 34 42 62 51
21 53 80 94 110 121 131 132 130 126 119 110 100 91 83 78 68 63 54 44 38 32 27 20 15 14 16 19 24 26 28 29 31 32 33 34 33 32 34 35 35 36 37
37 34 59 87 103 117 128 130 135 134 127 120 105 94 89 81 65 59 55 48 42 36 34 25 18 16 15 19 24 27 29 31 34 36 38 39 38 39 38 37 38 42 44
46 47 48 75 95 110 124 138 136 132 133 126 112 103 94 78 65 60 56 50 43 38 36 26 20 17 16 20 24 28 32 36 38 42 44 45 45 46 44 43 43 48 50
47 44 33 62 80 97 107 124 132 133 135 127 117 109 89 77 66 58 53 47 42 39 34 27 24 19 18 20 25 32 38 43 46 48 50 51 52 52 51 52 55 57 57
57 47 22 22 54 75 85 96 104 110 118 122 118 106 85 74 59 53 52 47 43 37 35 33 28 23 21 23 28 38 48 54 55 57 58 59 59 59 55 54 57 58 59
53 48 34 10 22 47 65 73 78 88 101 111 113 93 83 69 55 52 51 47 41 38 37 35 31 29 26 28 36 48 59 63 63 65 66 63 60 60 57 58 59 57 56
45 46 40 28 3 22 40 54 66 77 86 97 88 82 77 63 56 53 51 45 41 42 40 39 37 30 27 36 44 57 68 70 71 70 67 60 60 60 60 62 62 57 56
31 30 40 41 31 12 9 28 45 59 65 71 76 73 76 63 59 54 52 47 47 47 44 41 35 32 36 44 52 64 72 74 73 72 65 61 63 66 67 64 60 54 56
25 15 25 29 34 36 16 6 19 33 47 53 61 70 75 66 60 56 54 50 49 46 43 40 38 39 44 51 59 69 76 75 71 69 68 71 72 71 70 69 66 62 59
28 16 15 18 26 33 36 25 14 18 31 43 54 63 68 65 59 58 55 53 51 47 43 43 44 44 47 56 69 74 75 72 69 71 71 75 77 68 65 62 58 54 55
34 21 18 20 12 10 28 33 32 18 24 26 40 52 57 59 55 53 54 53 51 46 44 43 43 45 50 64 71 73 72 73 74 74 72 77 74 62 56 55 57 55 59
39 37 23 15 9 13 11 14 34 31 16 29 34 35 37 40 42 44 47 47 42 41 41 41 43 51 62 68 68 66 72 77 77 78 80 69 62 60 56 58 54 59 60
25 30 26 27 7 13 6 16 15 22 4 20 9 19 29 37 37 33 34 34 35 37 37 40 50 60 66 62 63 65 69 74 80 82 77 65 61 59 60 55 56 59 57
29 32 24 17 21 42 15 10 18 10 6 18 19 21 16 16 23 27 28 27 27 33 41 50 59 62 57 58 63 63 64 68 74 74 71 69 63 64 58 60 62 62 59
32 19 25 30 27 28 37 37 9 22 10 16 19 17 12 18 20 22 25 26 32 41 48 56 62 59 56 58 59 61 60 61 65 66 71 69 68 65 64 63 68 69 71
23 27 27 22 27 38 36 36 42 29 21 17 19 28 22 38 20 17 22 25 32 39 46 49 51 55 55 54 55 57 54 56 58 63 66 70 70 69 73 74 74 78 80
31 29 28 31 24 24 30 39 44 43 40 50 40 39 34 32 22 26 30 33 37 39 45 49 51 53 57 53 47 52 57 57 59 64 70 72 72 74 75 82 86 82 76
38 35 31 28 25 20 17 21 26 29 28 30 32 30 26 21 18 24 26 32 42 46 41 36 43 46 51 51 49 51 57 56 58 64 69 71 74 79 83 87 89 80 77
Wind_Direction_500mb
221 216 218 223 219 217 211 203 199 197 198 197 198 200 202 199 194 186 184 178 171 150 111 72 43 32 18 19 15 18 15 8 13 20 36 34 90 99 329 331 302 313 333
211 212 218 225 228 221 214 210 206 203 204 207 204 202 202 201 197 190 189 186 182 172 131 65 34 24 19 17 14 16 19 11 10 18 22 21 70 327 87 10 16 325 322
218 213 217 223 228 225 219 211 207 207 209 211 207 203 202 200 195 195 195 191 186 184 153 79 36 19 15 14 15 15 16 19 11 12 25 6 341 352 344 3 343 351 345
225 227 224 220 225 229 222 213 211 209 212 213 210 211 206 203 201 197 195 192 192 192 183 113 26 11 12 14 13 11 12 11 15 11 8 10 357 342 319 339 348 352 356
231 224 225 224 226 225 223 215 213 210 212 212 215 216 213 214 203 195 196 197 199 196 197 202 340 356 3 7 9 6 6 7 5 5 3 356 355 353 340 328 338 342 352
224 227 229 223 221 221 219 213 213 211 211 212 216 220 218 212 204 200 200 200 201 199 205 224 298 337 347 355 360 1 358 359 358 353 357 355 348 342 341 331 334 331 337
235 227 223 220 217 216 216 214 214 211 210 212 216 219 216 213 208 206 203 200 202 204 209 226 279 314 333 340 346 350 347 348 349 345 345 344 340 334 334 328 330 328 329
253 234 229 224 221 220 218 216 215 212 211 213 216 217 214 214 211 210 208 209 208 209 217 230 267 292 317 326 332 337 336 338 339 339 339 336 331 325 321 324 330 331 327
270 246 234 229 225 222 220 218 216 215 213 213 215 214 213 214 211 209 211 212 211 217 227 239 266 281 306 317 323 326 325 329 329 333 334 331 329 321 313 314 320 325 319
316 268 244 238 229 227 223 219 219 218 215 213 213 213 213 213 209 209 213 214 217 224 234 240 262 278 291 306 317 319 320 322 324 327 327 326 324 318 311 306 308 308 308
338 300 244 236 234 228 224 224 220 220 217 214 213 214 213 209 208 214 218 220 223 232 231 240 256 262 283 304 316 320 322 321 320 321 321 321 319 317 311 306 303 302 300
6 336 277 228 227 221 218 221 222 221 221 216 215 216 210 206 205 212 217 221 225 223 231 242 248 251 276 303 318 323 321 319 316 316 316 317 316 314 312 310 305 300 297
15 13 336 229 223 219 215 218 219 219 222 219 217 215 207 204 204 209 216 219 218 220 229 236 236 249 271 298 315 319 320 317 315 314 313 315 314 312 312 308 304 302 298
18 22 18 352 204 210 215 219 220 220 224 221 217 210 205 202 202 208 213 214 214 219 220 225 230 246 270 298 310 315 316 314 312 311 310 312 310 309 310 305 303 304 299
17 28 33 35 57 216 213 216 221 222 222 221 212 206 202 197 200 208 211 208 209 210 212 220 232 250 284 298 302 309 311 309 307 306 307 307 307 307 305 302 302 300 294
8 30 52 61 60 63 219 225 222 222 221 217 209 202 198 195 198 208 208 200 201 205 213 225 241 264 281 292 296 303 305 304 303 304 305 308 305 303 301 302 299 291 287
9 7 31 46 47 51 61 156 206 213 211 207 203 199 194 192 196 203 203 201 205 211 222 234 249 266 277 289 296 300 300 299 302 303 307 307 304 305 308 304 297 288 279
34 13 10 19 50 41 52 49 154 176 194 196 198 194 190 193 197 200 204 207 213 221 232 244 257 268 281 293 297 299 297 298 301 303 305 303 304 309 305 301 298 296 289
254 37 34 38 1 353 28 33 66 160 180 190 186 186 193 200 204 204 210 217 223 231 239 249 260 274 289 296 299 298 297 299 301 301 301 304 305 307 302 300 300 302 303
239 242 270 346 286 0 321 19 44 64 167 182 187 192 198 207 212 220 222 225 229 233 239 250 268 283 294 298 297 296 298 299 301 302 301 302 302 302 301 299 296 294 300
223 235 242 258 308 58 78 116 116 38 105 75 127 200 211 217 218 221 222 218 220 232 248 266 279 289 295 297 295 299 299 299 298 299 302 302 304 303 298 298 295 298 302
241 240 233 236 239 215 133 52 30 60 249 130 102 96 127 173 180 184 196 211 236 262 276 284 290 295 296 298 300 299 295 294 294 299 300 303 306 305 305 305 303 301 296
240 249 247 232 225 210 214 211 302 207 155 240 219 217 222 233 232 233 247 251 267 278 287 295 294 294 295 298 299 297 296 296 299 298 299 301 304 307 308 307 305 303 298
280 262 243 221 217 229 221 229 218 213 246 262 237 223 230 243 241 256 262 277 288 291 294 293 290 293 298 301 301 299 299 301 300 301 303 306 309 310 309 305 302 296 290
267 255 251 236 226 217 221 217 215 211 208 207 211 222 233 236 251 266 281 286 288 296 295 295 298 306 310 311 311 310 307 305 305 306 303 307 309 308 307 309 311 307 301
266 254 245 242 225 229 235 222 204 202 207 201 201 206 219 245 260 267 267 281 283 284 292 299 309 315 312 313 312 308 302 305 306 299 304 307 310 314 315 314 312 308 300
Wind_Speed_850mb
82 87 85 82 85 88 89 84 81 74 70 67 67 62 56 47 37 36 32 24 16 9 7 8 13 19 24 32 38 40 41 42 43 39 26 20 9 8 29 15 10 14 20
80 82 84 86 92 91 96 95 89 79 72 69 69 65 59 51 39 41 36 28 19 12 6 7 12 18 24 28 33 40 44 46 49 45 30 17 7 16 11 25 12 21 28
88 88 93 95 96 98 104 107 99 85 74 73 72 65 62 53 52 52 43 32 23 15 6 5 9 15 21 26 33 39 42 41 42 43 33 14 13 39 16 14 36 31 29
86 86 101 102 106 107 104 112 102 91 82 78 76 72 69 68 64 56 46 35 27 19 9 3 6 13 18 23 30 37 40 40 37 35 34 27 28 17 25 41 42 41 35
82 87 105 118 110 108 110 114 110 98 89 86 81 76 73 64 59 56 49 40 33 24 13 3 4 11 15 20 27 33 37 38 36 30 27 27 28 24 30 43 71 55 45
74 80 91 117 114 112 109 113 118 105 96 90 84 83 74 66 66 63 56 47 37 28 17 8 5 10 15 19 25 30 35 36 34 32 29 27 26 28 30 49 61 67 58
59 79 90 108 103 113 113 115 120 115 105 99 91 89 78 69 68 66 61 52 42 32 22 12 8 11 16 21 25 28 31 31 30 30 30 28 27 29 30 36 49 59 69
40 74 93 108 110 121 121 122 124 120 110 105 95 89 79 73 68 64 58 49 36 29 24 16 11 12 16 21 26 27 29 30 30 30 30 30 28 29 31 34 42 62 51
21 53 80 94 110 121 131 132 130 126 119 110 100 91 83 78 68 63 54 44 38 32 27 20 15 14 16 19 24 26 28 29 31 32 33 34 33 32 34 35 35 36 37
37 34 59 87 103 117 128 130 135 134 127 120 105 94 89 81 65 59 55 48 42 36 34 25 18 16 15 19 24 27 29 31 34 36 38 39 38 39 38 37 38 42 44
46 47 48 75 95 110 124 138 136 132 133 126 112 103 94 78 65 60 56 50 43 38 36 26 20 17 16 20 24 28 32 36 38 42 44 45 45 46 44 43 43 48 50
47 44 33 62 80 97 107 124 132 133 135 127 117 109 89 77 66 58 53 47 42 39 34 27 24 19 18 20 25 32 38 43 46 48 50 51 52 52 51 52 55 57 57
57 47 22 22 54 75 85 96 104 110 118 122 118 106 85 74 59 53 52 47 43 37 35 33 28 23 21 23 28 38 48 54 55 57 58 59 59 59 55 54 57 58 59
53 48 34 10 22 47 65 73 78 88 101 111 113 93 83 69 55 52 51 47 41 38 37 35 31 29 26 28 36 48 59 63 63 65 66 63 60 60 57 58 59 57 56
45 46 40 28 3 22 40 54 66 77 86 97 88 82 77 63 56 53 51 45 41 42 40 39 37 30 27 36 44 57 68 70 71 70 67 60 60 60 60 62 62 57 56
31 30 40 41 31 12 9 28 45 59 65 71 76 73 76 63 59 54 52 47 47 47 44 41 35 32 36 44 52 64 72 74 73 72 65 61 63 66 67 64 60 54 56
25 15 25 29 34 36 16 6 19 33 47 53 61 70 75 66 60 56 54 50 49 46 43 40 38 39 44 51 59 69 76 75 71 69 68 71 72 71 70 69 66 62 59
28 16 15 18 26 33 36 25 14 18 31 43 54 63 68 65 59 58 55 53 51 47 43 43 44 44 47 56 69 74 75 72 69 71 71 75 77 68 65 62 58 54 55
34 21 18 20 12 10 28 33 32 18 24 26 40 52 57 59 55 53 54 53 51 46 44 43 43 45 50 64 71 73 72 73 74 74 72 77 74 62 56 55 57 55 59
39 37 23 15 9 13 11 14 34 31 16 29 34 35 37 40 42 44 47 47 42 41 41 41 43 51 62 68 68 66 72 77 77 78 80 69 62 60 56 58 54 59 60
25 30 26 27 7 13 6 16 15 22 4 20 9 19 29 37 37 33 34 34 35 37 37 40 50 60 66 62 63 65 69 74 80 82 77 65 61 59 60 55 56 59 57
29 32 24 17 21 42 15 10 18 10 6 18 19 21 16 16 23 27 28 27 27 33 41 50 59 62 57 58 63 63 64 68 74 74 71 69 63 64 58 60 62 62 59
32 19 25 30 27 28 37 37 9 22 10 16 19 17 12 18 20 22 25 26 32 41 48 56 62 59 56 58 59 61 60 61 65 66 71 69 68 65 64 63 68 69 71
23 27 27 22 27 38 36 36 42 29 21 17 19 28 22 38 20 17 22 25 32 39 46 49 51 55 55 54 55 57 54 56 58 63 66 70 70 69 73 74 74 78 80
31 29 28 31 24 24 30 39 44 43 40 50 40 39 34 32 22 26 30 33 37 39 45 49 51 53 57 53 47 52 57 57 59 64 70 72 72 74 75 82 86 82 76
38 35 31 28 25 20 17 21 26 29 28 30 32 30 26 21 18 24 26 32 42 46 41 36 43 46 51 51 49 51 57 56 58 64 69 71 74 79 83 87 89 80 77
Wind_Direction_850mb
221 216 218 223 219 217 211 203 199 197 198 197 198 200 202 199 194 186 184 178 171 150 111 72 43 32 18 19 15 18 15 8 13 20 36 34 90 99 329 331 302 313 333
211 212 218 225 228 221 214 210 206 203 204 207 204 202 202 201 197 190 189 186 182 172 131 65 34 24 19 17 14 16 19 11 10 18 22 21 70 327 87 10 16 325 322
218 213 217 223 228 225 219 211 207 207 209 211 207 203 202 200 195 195 195 191 186 184 153 79 36 19 15 14 15 15 16 19 11 12 25 6 341 352 344 3 343 351 345
225 227 224 220 225 229 222 213 211 209 212 213 210 211 206 203 201 197 195 192 192 192 183 113 26 11 12 14 13 11 12 11 15 11 8 10 357 342 319 339 348 352 356
231 224 225 224 226 225 223 215 213 210 212 212 215 216 213 214 203 195 196 197 199 196 197 202 340 356 3 7 9 6 6 7 5 5 3 356 355 353 340 328 338 342 352
224 227 229 223 221 221 219 213 213 211 211 212 216 220 218 212 204 200 200 200 201 199 205 224 298 337 347 355 360 1 358 359 358 353 357 355 348 342 341 331 334 331 337
235 227 223 220 217 216 216 214 214 211 210 212 216 219 216 213 208 206 203 200 202 204 209 226 279 314 333 340 346 350 347 348 349 345 345 344 340 334 334 328 330 328 329
253 234 229 224 221 220 218 216 215 212 211 213 216 217 214 214 211 210 208 209 208 209 217 230 267 292 317 326 332 337 336 338 339 339 339 336 331 325 321 324 330 331 327
270 246 234 229 225 222 220 218 216 215 213 213 215 214 213 214 211 209 211 212 211 217 227 239 266 281 306 317 323 326 325 329 329 333 334 331 329 321 313 314 320 325 319
316 268 244 238 229 227 223 219 219 218 215 213 213 213 213 213 209 209 213 214 217 224 234 240 262 278 291 306 317 319 320 322 324 327 327 326 324 318 311 306 308 308 308
338 300 244 236 234 228 224 224 220 220 217 214 213 214 213 209 208 214 218 220 223 232 231 240 256 262 283 304 316 320 322 321 320 321 321 321 319 317 311 306 303 302 300
6 336 277 228 227 221 218 221 222 221 221 216 215 216 210 206 205 212 217 221 225 223 231 242 248 251 276 303 318 323 321 319 316 316 316 317 316 314 312 310 305 300 297
15 13 336 229 223 219 215 218 219 219 222 219 217 215 207 204 204 209 216 219 218 220 229 236 236 249 271 298 315 319 320 317 315 314 313 315 314 312 312 308 304 302 298
18 22 18 352 204 210 215 219 220 220 224 221 217 210 205 202 202 208 213 214 214 219 220 225 230 246 270 298 310 315 316 314 312 311 310 312 310 309 310 305 303 304 299
17 28 33 35 57 216 213 216 221 222 222 221 212 206 202 197 200 208 211 208 209 210 212 220 232 250 284 298 302 309 311 309 307 306 307 307 307 307 305 302 302 300 294
8 30 52 61 60 63 219 225 222 222 221 217 209 202 198 195 198 208 208 200 201 205 213 225 241 264 281 292 296 303 305 304 303 304 305 308 305 303 301 302 299 291 287
9 7 31 46 47 51 61 156 206 213 211 207 203 199 194 192 196 203 203 201 205 211 222 234 249 266 277 289 296 300 300 299 302 303 307 307 304 305 308 304 297 288 279
34 13 10 19 50 41 52 49 154 176 194 196 198 194 190 193 197 200 204 207 213 221 232 244 257 268 281 293 297 299 297 298 301 303 305 303 304 309 305 301 298 296 289
254 37 34 38 1 353 28 33 66 160 180 190 186 186 193 200 204 204 210 217 223 231 239 249 260 274 289 296 299 298 297 299 301 301 301 304 305 307 302 300 300 302 303
239 242 270 346 286 0 321 19 44 64 167 182 187 192 198 207 212 220 222 225 229 233 239 250 268 283 294 298 297 296 298 299 301 302 301 302 302 302 301 299 296 294 300
223 235 242 258 308 58 78 116 116 38 105 75 127 200 211 217 218 221 222 218 220 232 248 266 279 289 295 297 295 299 299 299 298 299 302 302 304 303 298 298 295 298 302
241 240 233 236 239 215 133 52 30 60 249 130 102 96 127 173 180 184 196 211 236 262 276 284 290 295 296 298 300 299 295 294 294 299 300 303 306 305 305 305 303 301 296
240 249 247 232 225 210 214 211 302 207 155 240 219 217 222 233 232 233 247 251 267 278 287 295 294 294 295 298 299 297 296 296 299 298 299 301 304 307 308 307 305 303 298
280 262 243 221 217 229 221 229 218 213 246 262 237 223 230 243 241 256 262 277 288 291 294 293 290 293 298 301 301 299 299 301 300 301 303 306 309 310 309 305 302 296 290
267 255 251 236 226 217 221 217 215 211 208 207 211 222 233 236 251 266 281 286 288 296 295 295 298 306 310 311 311 310 307 305 305 306 303 307 309 308 307 309 311 307 301
266 254 245 242 225 229 235 222 204 202 207 201 201 206 219 245 260 267 267 281 283 284 292 299 309 315 312 313 312 308 302 305 306 299 304 307 310 314 315 314 312 308 300